Flag for Uzbekistan Weather past 2 weeks in Samarkand, Uzbekistan

Now
84 °F

Clear.


Feels Like: 82 °F
Forecast: 75 / 103 °F
Wind: 10 mph from East

Location: Samarkand

Current Time: Jul 2, 2015 at 11:21:33 PM

Latest Report: Jul 2, 2015 at 10:30 PM


Visibility: N/A

Pressure: 29.86 "Hg

Humidity: 31%

Dew point: 50 °F

Location of SamarkandLocation

Historic Weather in Samarkand — Graph

°F

Samarkand temperature yesterday

Maximum temperature yesterday: 97 °F (at 11:30 AM)
Minimum temperature yesterday: 68 °F (at 5:30 AM)
Average temperature yesterday: 86 °F

Past Weeks' High & Low Weather Summary

 TemperatureHumidityPressure
High100 °F (Jul 2, 1:30 PM)68% (Jun 26, 6:30 AM)29.86 "Hg (Jun 26, 6:30 AM)
Low66 °F (Jun 21, 3:30 AM)9% (Jun 20, 4:30 PM)29.56 "Hg (Jun 26, 1:30 AM)
Average84 °F29%29.69 "Hg
* Reported Jun 17 10:00 PM — Jul 2 10:00 PM, Samarkand, Weather by CustomWeather, © 2015

Note: Actual official high and low records may vary slightly from our data, if they occured in-between our weather recording intervals... More about our weather records

Advertising

Samarkand weather history for previous 24 hours

 ConditionsComfort  
Time TempWeatherWind HumidityBarometerVisibility
10:00 PM
Thu, Jul 2
84 °FClear.9 mph29%29.86 "HgN/A
9:30 PM86 °FClear.8 mph27%29.86 "HgN/A
9:00 PM86 °FClear.8 mph27%29.83 "HgN/A
8:30 PM84 °FClear.2 mph29%29.83 "HgN/A
8:00 PM88 °FClear.3 mph24%29.83 "HgN/A
7:30 PM90 °FClear.6 mph22%29.83 "HgN/A
7:00 PM91 °FClear.8 mph20%29.83 "HgN/A
6:30 PM95 °FClear.10 mph15%29.83 "HgN/A
6:00 PM97 °FClear.13 mph14%29.83 "HgN/A
5:30 PM97 °FClear.15 mph13%29.80 "HgN/A
5:00 PM99 °FClear.14 mph14%29.80 "HgN/A
4:30 PM99 °FClear.13 mph14%29.83 "HgN/A
4:00 PM99 °FClear.13 mph13%29.80 "HgN/A
3:30 PM99 °FClear.15 mph13%29.83 "HgN/A
3:00 PM100 °FClear.10 mph10%29.83 "HgN/A
2:30 PM100 °FClear.13 mph10%29.83 "HgN/A
2:00 PM100 °FClear.13 mph11%29.83 "HgN/A
1:30 PM100 °FClear.15 mph10%29.83 "HgN/A
1:00 PM99 °FClear.13 mph11%29.86 "HgN/A
12:30 PM99 °FClear.15 mph11%29.86 "HgN/A
12:00 PM99 °FClear.15 mph17%29.86 "HgN/A
11:30 AM97 °FClear.8 mph17%29.86 "HgN/A
11:00 AM95 °FClear.6 mph23%29.86 "HgN/A
10:30 AM93 °FClear.3 mph28%29.86 "HgN/A
10:00 AM91 °FClear.3 mph28%29.86 "HgN/A
9:30 AM91 °FClear.2 mph26%29.86 "HgN/A
9:00 AM90 °FClear.5 mph26%29.86 "HgN/A
8:30 AM88 °FClear.3 mph27%29.86 "HgN/A
8:00 AM86 °FClear.5 mph27%29.86 "HgN/A
7:30 AM82 °FClear.7 mph30%29.86 "HgN/A
7:00 AM79 °FClear.6 mph34%29.86 "HgN/A
6:30 AM75 °FClear.5 mph39%29.86 "HgN/A
6:00 AM73 °FClear.8 mph38%29.86 "HgN/A
5:30 AM72 °FClear.6 mph44%29.86 "HgN/A
5:00 AM72 °FClear.3 mph44%29.86 "HgN/A
4:30 AM68 °FClear.No wind53%29.83 "HgN/A
4:00 AM73 °FClear.5 mph41%29.83 "HgN/A
3:00 AM75 °FClear.7 mph31%29.83 "HgN/A
2:30 AM73 °FClear.9 mph38%29.83 "HgN/A
1:30 AM75 °FClear.9 mph34%29.83 "HgN/A
1:00 AM75 °FClear.9 mph34%29.83 "HgN/A
12:30 AM75 °FClear.8 mph34%29.83 "HgN/A
12:00 AM75 °FClear.8 mph34%29.83 "HgN/A
11:30 PM
Wed, Jul 1
81 °FClear.7 mph26%29.83 "HgN/A
11:00 PM82 °FClear.6 mph23%29.83 "HgN/A
Weather by CustomWeather, © 2015

See weather overviewHow to use our weather pages